| time (UTC) | temp C | wind direction | speed KPH | gust KPH | rain 1hr cm | rain 24hr cm | rain mn cm | humidity % | barometer mb |
| 20260508050655 | 9 | 135 | 0.0 | 0.0 | 0.00 | 0.00 | 0.00 | 94 | 1007.0 |
| 20260508050159 | 9 | 135 | 0.0 | 0.0 | 0.00 | 0.00 | 0.00 | 94 | 1007.0 |
| 20260508045655 | 9 | 135 | 0.0 | 0.0 | 0.00 | 0.00 | 0.00 | 94 | 1007.0 |
| 20260508045155 | 9 | 135 | 0.0 | 0.0 | 0.00 | 0.00 | 0.00 | 94 | 1007.0 |
| 20260508044654 | 9 | 135 | 0.0 | 0.0 | 0.00 | 0.00 | 0.00 | 94 | 1007.0 |
| 20260508044155 | 9 | 135 | 0.0 | 0.0 | 0.00 | 0.00 | 0.00 | 94 | 1007.0 |
| 20260508043654 | 9 | 135 | 0.0 | 0.0 | 0.00 | 0.00 | 0.00 | 94 | 1007.0 |
| 20260508043158 | 9 | 135 | 0.0 | 0.0 | 0.00 | 0.00 | 0.00 | 94 | 1007.0 |
| 20260508042655 | 9 | 135 | 0.0 | 0.0 | 0.00 | 0.00 | 0.00 | 94 | 1007.0 |
| 20260508042154 | 9 | 135 | 0.0 | 0.0 | 0.00 | 0.00 | 0.00 | 94 | 1007.0 |
| 20260508041654 | 9 | 135 | 0.0 | 0.0 | 0.00 | 0.00 | 0.00 | 94 | 1007.0 |
| 20260508041156 | 10 | 135 | 0.0 | 0.0 | 0.00 | 0.00 | 0.00 | 94 | 1007.0 |
| 20260508040659 | 10 | 135 | 0.0 | 0.0 | 0.00 | 0.00 | 0.00 | 94 | 1007.0 |
| 20260508040156 | 10 | 135 | 0.0 | 0.0 | 0.00 | 0.00 | 0.00 | 94 | 1007.0 |
| 20260508035655 | 10 | 135 | 0.0 | 0.0 | 0.00 | 0.00 | 1.83 | 94 | 1007.0 |
| 20260508035155 | 10 | 135 | 0.0 | 0.0 | 0.00 | 0.00 | 1.83 | 94 | 1007.0 |
| 20260508034657 | 10 | 135 | 0.0 | 0.0 | 0.00 | 0.00 | 1.83 | 94 | 1007.0 |
| 20260508034155 | 10 | 135 | 0.0 | 0.0 | 0.00 | 0.00 | 1.83 | 94 | 1007.0 |
| 20260508033655 | 10 | 135 | 0.0 | 0.0 | 0.00 | 0.00 | 1.83 | 94 | 1007.0 |
| 20260508033159 | 10 | 135 | 0.0 | 0.0 | 0.00 | 0.00 | 1.83 | 94 | 1007.0 |
| 20260508032657 | 10 | 135 | 1.6 | 3.2 | 0.00 | 0.00 | 1.83 | 94 | 1007.0 |
| 20260508032157 | 10 | 135 | 0.0 | 0.0 | 0.00 | 0.00 | 1.83 | 94 | 1007.0 |
| 20260508031655 | 10 | 135 | 0.0 | 0.0 | 0.00 | 0.00 | 1.83 | 94 | 1007.0 |
| 20260508031154 | 10 | 135 | 0.0 | 0.0 | 0.00 | 0.00 | 1.83 | 94 | 1007.0 |
| 20260508030656 | 10 | 135 | 0.0 | 0.0 | 0.00 | 0.00 | 1.83 | 94 | 1007.0 |
| 20260508030157 | 10 | 135 | 0.0 | 0.0 | 0.00 | 0.00 | 1.83 | 94 | 1007.0 |
| 20260508025654 | 10 | 135 | 0.0 | 0.0 | 0.00 | 0.00 | 1.83 | 94 | 1007.0 |
| 20260508025155 | 10 | 135 | 0.0 | 0.0 | 0.00 | 0.00 | 1.83 | 94 | 1007.0 |
| 20260508024654 | 11 | 135 | 0.0 | 0.0 | 0.00 | 0.00 | 1.83 | 94 | 1007.0 |
| 20260508024155 | 11 | 135 | 0.0 | 0.0 | 0.00 | 0.00 | 1.83 | 94 | 1007.0 |
| 20260508023656 | 11 | 135 | 0.0 | 0.0 | 0.00 | 0.00 | 1.83 | 94 | 1006.0 |
| 20260508023156 | 11 | 135 | 0.0 | 0.0 | 0.00 | 0.00 | 1.83 | 94 | 1006.0 |
| 20260508022656 | 11 | 135 | 0.0 | 0.0 | 0.00 | 0.00 | 1.83 | 94 | 1007.0 |
| 20260508022155 | 11 | 135 | 0.0 | 0.0 | 0.00 | 0.00 | 1.83 | 94 | 1006.0 |
| 20260508021655 | 11 | 135 | 0.0 | 0.0 | 0.00 | 0.00 | 1.83 | 94 | 1006.0 |
| 20260508021154 | 11 | 135 | 0.0 | 0.0 | 0.00 | 0.00 | 1.83 | 94 | 1006.0 |
| 20260508020655 | 11 | 135 | 0.0 | 0.0 | 0.00 | 0.00 | 1.83 | 94 | 1006.0 |
| 20260508020154 | 11 | 135 | 0.0 | 0.0 | 0.00 | 0.00 | 1.83 | 94 | 1006.0 |
| 20260508015655 | 11 | 135 | 0.0 | 0.0 | 0.00 | 0.00 | 1.83 | 94 | 1006.0 |
| 20260508015154 | 12 | 135 | 0.0 | 0.0 | 0.00 | 0.00 | 1.83 | 94 | 1006.0 |
| 20260508014655 | 12 | 135 | 0.0 | 0.0 | 0.00 | 0.00 | 1.83 | 94 | 1006.0 |
| 20260508014154 | 12 | 135 | 0.0 | 0.0 | 0.00 | 0.00 | 1.83 | 94 | 1006.0 |
| 20260508013655 | 12 | 135 | 0.0 | 0.0 | 0.00 | 0.00 | 1.83 | 94 | 1006.0 |
| 20260508013156 | 12 | 135 | 0.0 | 0.0 | 0.00 | 0.00 | 1.83 | 94 | 1005.0 |
| 20260508012655 | 12 | 135 | 0.0 | 0.0 | 0.00 | 0.00 | 1.83 | 94 | 1005.0 |
| 20260508012155 | 12 | 135 | 0.0 | 0.0 | 0.00 | 0.00 | 1.83 | 94 | 1005.0 |
| 20260508011655 | 12 | 135 | 0.0 | 0.0 | 0.00 | 0.00 | 1.83 | 94 | 1005.0 |
| 20260508011155 | 12 | 135 | 0.0 | 0.0 | 0.00 | 0.00 | 1.83 | 94 | 1005.0 |
| 20260508010654 | 12 | 135 | 0.0 | 0.0 | 0.00 | 0.00 | 1.83 | 94 | 1005.0 |
| 20260508010157 | 12 | 135 | 1.6 | 3.2 | 0.00 | 0.00 | 1.83 | 94 | 1005.0 |
| 20260508005655 | 12 | 135 | 0.0 | 0.0 | 0.00 | 0.00 | 1.83 | 94 | 1005.0 |
| 20260508005156 | 12 | 135 | 0.0 | 0.0 | 0.00 | 0.00 | 1.83 | 93 | 1005.0 |
| 20260508004656 | 12 | 135 | 0.0 | 0.0 | 0.00 | 0.00 | 1.83 | 93 | 1005.0 |
| 20260508004155 | 12 | 135 | 0.0 | 0.0 | 0.00 | 0.00 | 1.83 | 93 | 1005.0 |
| 20260508003656 | 12 | 135 | 0.0 | 0.0 | 0.00 | 0.00 | 1.83 | 93 | 1005.0 |
| 20260508003154 | 12 | 135 | 0.0 | 0.0 | 0.00 | 0.00 | 1.83 | 93 | 1005.0 |
| 20260508002656 | 12 | 135 | 0.0 | 0.0 | 0.00 | 0.00 | 1.83 | 93 | 1005.0 |
| 20260508002157 | 12 | 135 | 0.0 | 0.0 | 0.00 | 0.00 | 1.83 | 93 | 1005.0 |
| 20260508001654 | 13 | 135 | 0.0 | 0.0 | 0.00 | 0.00 | 1.83 | 93 | 1005.0 |
| 20260508001155 | 13 | 135 | 0.0 | 0.0 | 0.00 | 0.00 | 1.83 | 93 | 1005.0 |
| 20260508000655 | 13 | 135 | 0.0 | 0.0 | 0.00 | 0.00 | 1.83 | 93 | 1005.0 |
| 20260508000156 | 13 | 135 | 0.0 | 0.0 | 0.00 | 0.00 | 1.83 | 93 | 1005.0 |
| 20260507235654 | 13 | 113 | 0.0 | 0.0 | 0.00 | 0.00 | 1.83 | 92 | 1005.0 |
| 20260507235156 | 13 | 113 | 1.6 | 3.2 | 0.00 | 0.00 | 1.83 | 92 | 1005.0 |
| 20260507234655 | 13 | 113 | 0.0 | 3.2 | 0.00 | 0.00 | 1.83 | 92 | 1004.0 |
| 20260507234155 | 13 | 113 | 0.0 | 1.6 | 0.00 | 0.00 | 1.83 | 92 | 1004.0 |
| 20260507233654 | 13 | 113 | 0.0 | 0.0 | 0.00 | 0.00 | 1.83 | 92 | 1004.0 |
| 20260507233155 | 13 | 113 | 0.0 | 0.0 | 0.00 | 0.00 | 1.83 | 92 | 1004.0 |
| 20260507232656 | 13 | 135 | 0.0 | 1.6 | 0.00 | 0.00 | 1.83 | 92 | 1004.0 |
| 20260507232155 | 13 | 113 | 0.0 | 1.6 | 0.00 | 0.00 | 1.83 | 92 | 1004.0 |
| 20260507231655 | 13 | 135 | 0.0 | 0.0 | 0.00 | 0.00 | 1.83 | 92 | 1004.0 |
| 20260507231156 | 13 | 135 | 0.0 | 0.0 | 0.00 | 0.00 | 1.83 | 92 | 1004.0 |
| 20260507230656 | 13 | 113 | 0.0 | 1.6 | 0.00 | 0.00 | 1.83 | 92 | 1004.0 |
| 20260507230154 | 13 | 68 | 4.8 | 4.8 | 0.00 | 0.00 | 1.83 | 92 | 1004.0 |
| 20260507225654 | 13 | 113 | 0.0 | 1.6 | 0.00 | 0.00 | 1.83 | 92 | 1004.0 |
| 20260507225159 | 13 | 113 | 3.2 | 3.2 | 0.00 | 0.00 | 1.83 | 92 | 1004.0 |
| 20260507224655 | 13 | 135 | 1.6 | 3.2 | 0.00 | 0.00 | 1.83 | 91 | 1004.0 |
| 20260507224154 | 13 | 113 | 3.2 | 3.2 | 0.00 | 0.00 | 1.83 | 91 | 1004.0 |
| 20260507223655 | 13 | 113 | 1.6 | 3.2 | 0.00 | 0.00 | 1.83 | 91 | 1004.0 |
| 20260507223154 | 13 | 113 | 0.0 | 1.6 | 0.00 | 0.00 | 1.83 | 91 | 1004.0 |
| 20260507222654 | 13 | 113 | 1.6 | 3.2 | 0.00 | 0.00 | 1.83 | 91 | 1004.0 |
| 20260507222154 | 13 | 113 | 1.6 | 3.2 | 0.00 | 0.00 | 1.83 | 92 | 1004.0 |
| 20260507221655 | 13 | 113 | 1.6 | 3.2 | 0.00 | 0.00 | 1.83 | 92 | 1004.0 |
| 20260507221154 | 13 | 113 | 0.0 | 0.0 | 0.00 | 0.00 | 1.83 | 92 | 1004.0 |
| 20260507220655 | 13 | 113 | 1.6 | 1.6 | 0.00 | 0.00 | 1.83 | 92 | 1003.0 |
| 20260507220155 | 13 | 113 | 1.6 | 3.2 | 0.00 | 0.00 | 1.83 | 91 | 1003.0 |
| 20260507215654 | 13 | 113 | 0.0 | 0.0 | 0.00 | 0.00 | 1.83 | 91 | 1004.0 |
| 20260507215156 | 13 | 113 | 4.8 | 6.4 | 0.00 | 0.00 | 1.83 | 91 | 1003.0 |
| 20260507214655 | 13 | 113 | 3.2 | 3.2 | 0.00 | 0.00 | 1.83 | 92 | 1003.0 |
| 20260507214155 | 13 | 113 | 8.0 | 11.3 | 0.00 | 0.00 | 1.83 | 91 | 1003.0 |
| 20260507213655 | 13 | 113 | 3.2 | 3.2 | 0.00 | 0.00 | 1.83 | 92 | 1003.0 |
| 20260507213155 | 13 | 113 | 0.0 | 1.6 | 0.00 | 0.00 | 1.83 | 92 | 1004.0 |
| 20260507212657 | 13 | 113 | 3.2 | 4.8 | 0.00 | 0.00 | 1.83 | 92 | 1004.0 |
| 20260507212155 | 13 | 113 | 3.2 | 3.2 | 0.00 | 0.00 | 1.83 | 92 | 1003.0 |
| 20260507211654 | 13 | 113 | 1.6 | 3.2 | 0.00 | 0.00 | 1.83 | 92 | 1003.0 |
| 20260507211154 | 13 | 113 | 4.8 | 8.0 | 0.00 | 0.00 | 1.83 | 92 | 1003.0 |
| 20260507210657 | 13 | 113 | 0.0 | 1.6 | 0.00 | 0.00 | 1.83 | 93 | 1004.0 |
| 20260507210157 | 13 | 113 | 4.8 | 6.4 | 0.00 | 0.00 | 1.83 | 93 | 1004.0 |
| 20260507205654 | 13 | 113 | 3.2 | 3.2 | 0.18 | 0.00 | 1.83 | 94 | 1003.0 |
| 20260507205155 | 12 | 135 | 3.2 | 6.4 | 0.18 | 0.00 | 1.83 | 93 | 1003.0 |
| 20260507204656 | 12 | 113 | 6.4 | 8.0 | 0.18 | 0.00 | 1.83 | 93 | 1003.0 |
| 20260507204157 | 12 | 113 | 3.2 | 3.2 | 0.15 | 0.00 | 1.80 | 93 | 1003.0 |
| 20260507203655 | 12 | 113 | 0.0 | 1.6 | 0.13 | 0.00 | 1.78 | 92 | 1004.0 |
| 20260507203156 | 12 | 113 | 3.2 | 3.2 | 0.10 | 0.00 | 1.75 | 92 | 1004.0 |
| 20260507202657 | 12 | 113 | 1.6 | 3.2 | 0.03 | 0.00 | 1.68 | 92 | 1004.0 |
| 20260507202155 | 13 | 113 | 4.8 | 8.0 | 0.00 | 0.00 | 1.65 | 92 | 1004.0 |
| 20260507201655 | 13 | 113 | 1.6 | 3.2 | 0.00 | 0.00 | 1.65 | 91 | 1003.0 |
| 20260507201154 | 13 | 113 | 3.2 | 3.2 | 0.00 | 0.00 | 1.65 | 92 | 1003.0 |
| 20260507200655 | 13 | 113 | 1.6 | 3.2 | 0.00 | 0.00 | 1.65 | 92 | 1003.0 |
| 20260507200155 | 13 | 113 | 4.8 | 6.4 | 0.00 | 0.00 | 1.65 | 91 | 1004.0 |
| 20260507195656 | 13 | 113 | 3.2 | 3.2 | 0.00 | 0.00 | 1.65 | 91 | 1003.0 |
| 20260507195157 | 13 | 113 | 3.2 | 3.2 | 0.00 | 0.00 | 1.65 | 91 | 1003.0 |
| 20260507194657 | 13 | 113 | 1.6 | 3.2 | 0.00 | 0.00 | 1.65 | 91 | 1003.0 |
| 20260507194156 | 13 | 113 | 4.8 | 8.0 | 0.00 | 0.00 | 1.65 | 90 | 1004.0 |
| 20260507193655 | 13 | 135 | 3.2 | 4.8 | 0.00 | 0.00 | 1.65 | 90 | 1003.0 |
| 20260507193155 | 13 | 113 | 6.4 | 8.0 | 0.00 | 0.00 | 1.65 | 90 | 1003.0 |
| 20260507192654 | 13 | 113 | 4.8 | 8.0 | 0.00 | 0.00 | 1.65 | 90 | 1003.0 |
| 20260507192156 | 13 | 113 | 4.8 | 6.4 | 0.00 | 0.00 | 1.65 | 91 | 1003.0 |
| 20260507191655 | 13 | 113 | 1.6 | 4.8 | 0.00 | 0.00 | 1.65 | 91 | 1003.0 |
| 20260507191155 | 13 | 113 | 4.8 | 8.0 | 0.00 | 0.00 | 1.65 | 91 | 1003.0 |
| 20260507190655 | 13 | 113 | 0.0 | 1.6 | 0.00 | 0.00 | 1.65 | 91 | 1003.0 |
| 20260507190156 | 13 | 113 | 8.0 | 11.3 | 0.00 | 0.00 | 1.65 | 91 | 1003.0 |
| 20260507185703 | 13 | 113 | 3.2 | 3.2 | 0.03 | 0.00 | 1.65 | 91 | 1003.0 |
| 20260507185154 | 13 | 113 | 4.8 | 8.0 | 0.03 | 0.00 | 1.65 | 91 | 1003.0 |
| 20260507184701 | 13 | 113 | 6.4 | 8.0 | 0.03 | 0.00 | 1.65 | 91 | 1003.0 |
| 20260507184155 | 13 | 113 | 3.2 | 4.8 | 0.03 | 0.00 | 1.65 | 92 | 1003.0 |
| 20260507183656 | 13 | 113 | 6.4 | 9.7 | 0.03 | 0.00 | 1.65 | 92 | 1003.0 |
| 20260507183157 | 13 | 113 | 8.0 | 12.9 | 0.03 | 0.00 | 1.65 | 92 | 1004.0 |
| 20260507182657 | 13 | 113 | 6.4 | 11.3 | 0.03 | 0.00 | 1.65 | 92 | 1003.0 |
| 20260507182156 | 13 | 113 | 4.8 | 6.4 | 0.03 | 0.00 | 1.65 | 93 | 1003.0 |
| 20260507181655 | 13 | 113 | 4.8 | 8.0 | 0.03 | 0.00 | 1.65 | 93 | 1003.0 |
| 20260507181156 | 13 | 113 | 4.8 | 6.4 | 0.03 | 0.00 | 1.65 | 93 | 1003.0 |
| 20260507180655 | 13 | 113 | 3.2 | 3.2 | 0.00 | 0.00 | 1.63 | 93 | 1003.0 |
| 20260507180156 | 13 | 113 | 1.6 | 4.8 | 0.00 | 0.00 | 1.63 | 93 | 1003.0 |
| 20260507175657 | 13 | 135 | 3.2 | 3.2 | 0.10 | 0.00 | 1.60 | 93 | 1004.0 |
| 20260507175156 | 13 | 113 | 1.6 | 3.2 | 0.10 | 0.00 | 1.60 | 93 | 1004.0 |
| 20260507174656 | 13 | 113 | 1.6 | 3.2 | 0.05 | 0.00 | 1.55 | 92 | 1003.0 |
| 20260507174154 | 14 | 113 | 4.8 | 6.4 | 0.03 | 0.00 | 1.52 | 92 | 1004.0 |
| 20260507173654 | 15 | 113 | 3.2 | 4.8 | 0.00 | 0.00 | 1.50 | 92 | 1004.0 |
| 20260507173156 | 15 | 113 | 6.4 | 8.0 | 0.00 | 0.00 | 1.50 | 92 | 1004.0 |
| 20260507172656 | 15 | 113 | 4.8 | 6.4 | 0.00 | 0.00 | 1.50 | 91 | 1003.0 |
| 20260507172157 | 16 | 113 | 4.8 | 6.4 | 0.00 | 0.00 | 1.50 | 92 | 1003.0 |
| 20260507171655 | 16 | 113 | 4.8 | 6.4 | 0.00 | 0.00 | 1.50 | 92 | 1003.0 |
| 20260507171158 | 16 | 113 | 3.2 | 4.8 | 0.00 | 0.00 | 1.50 | 92 | 1003.0 |
| 20260507170657 | 16 | 113 | 4.8 | 8.0 | 0.00 | 0.00 | 1.50 | 92 | 1003.0 |
| 20260507170155 | 17 | 135 | 1.6 | 3.2 | 0.00 | 0.00 | 1.50 | 93 | 1003.0 |
| 20260507165656 | 17 | 113 | 4.8 | 6.4 | 0.15 | 0.00 | 1.50 | 92 | 1003.0 |
| 20260507165157 | 17 | 113 | 3.2 | 3.2 | 0.15 | 0.00 | 1.50 | 92 | 1003.0 |
| 20260507164655 | 17 | 113 | 0.0 | 1.6 | 0.15 | 0.00 | 1.50 | 93 | 1002.0 |
| 20260507164157 | 17 | 113 | 4.8 | 6.4 | 0.15 | 0.00 | 1.50 | 94 | 1002.0 |
| 20260507163656 | 17 | 113 | 1.6 | 3.2 | 0.15 | 0.00 | 1.50 | 94 | 1002.0 |
| 20260507163200 | 17 | 135 | 0.0 | 1.6 | 0.15 | 0.00 | 1.50 | 94 | 1002.0 |
| 20260507162657 | 17 | 113 | 1.6 | 3.2 | 0.15 | 0.00 | 1.50 | 94 | 1002.0 |
| 20260507162154 | 17 | 113 | 1.6 | 3.2 | 0.15 | 0.00 | 1.50 | 94 | 1003.0 |
| 20260507161657 | 17 | 113 | 3.2 | 4.8 | 0.15 | 0.00 | 1.50 | 94 | 1003.0 |
| 20260507161155 | 17 | 113 | 1.6 | 3.2 | 0.15 | 0.00 | 1.50 | 94 | 1003.0 |
| 20260507160656 | 17 | 113 | 4.8 | 8.0 | 0.15 | 0.00 | 1.50 | 94 | 1003.0 |
| 20260507160154 | 17 | 135 | 0.0 | 0.0 | 0.03 | 0.00 | 1.37 | 95 | 1003.0 |
| 20260507155657 | 18 | 135 | 0.0 | 0.0 | 0.05 | 0.00 | 1.22 | 95 | 1003.0 |
| 20260507155156 | 18 | 135 | 0.0 | 0.0 | 0.05 | 0.00 | 1.22 | 95 | 1003.0 |
| 20260507154657 | 18 | 135 | 0.0 | 0.0 | 0.05 | 0.00 | 1.22 | 95 | 1003.0 |
| 20260507154156 | 18 | 135 | 0.0 | 0.0 | 0.05 | 0.00 | 1.22 | 95 | 1003.0 |
| 20260507153658 | 18 | 135 | 0.0 | 0.0 | 0.05 | 0.00 | 1.22 | 95 | 1003.0 |
| 20260507153156 | 18 | 135 | 0.0 | 0.0 | 0.05 | 0.00 | 1.22 | 95 | 1003.0 |
| 20260507152656 | 18 | 135 | 0.0 | 0.0 | 0.05 | 0.00 | 1.22 | 95 | 1004.0 |
| 20260507152156 | 18 | 135 | 0.0 | 0.0 | 0.03 | 0.00 | 1.19 | 95 | 1003.0 |
| 20260507151656 | 18 | 113 | 0.0 | 1.6 | 0.03 | 0.00 | 1.19 | 95 | 1004.0 |
| 20260507151156 | 18 | 135 | 0.0 | 0.0 | 0.00 | 0.00 | 1.17 | 95 | 1004.0 |
| 20260507150659 | 18 | 135 | 0.0 | 1.6 | 0.00 | 0.00 | 1.17 | 95 | 1004.0 |
| 20260507150157 | 18 | 135 | 1.6 | 1.6 | 0.00 | 0.00 | 1.17 | 95 | 1003.0 |
| 20260507145657 | 18 | 135 | 0.0 | 0.0 | 0.18 | 0.00 | 1.17 | 95 | 1003.0 |
| 20260507145156 | 18 | 135 | 0.0 | 0.0 | 0.15 | 0.00 | 1.14 | 95 | 1003.0 |
| 20260507144657 | 18 | 135 | 0.0 | 0.0 | 0.15 | 0.00 | 1.14 | 95 | 1003.0 |
| 20260507144156 | 18 | 135 | 0.0 | 0.0 | 0.13 | 0.00 | 1.12 | 95 | 1003.0 |
| 20260507143658 | 17 | 135 | 0.0 | 0.0 | 0.13 | 0.00 | 1.12 | 95 | 1003.0 |
| 20260507143157 | 18 | 135 | 0.0 | 0.0 | 0.10 | 0.00 | 1.09 | 95 | 1003.0 |
| 20260507142657 | 18 | 135 | 0.0 | 0.0 | 0.05 | 0.00 | 1.04 | 95 | 1003.0 |
| 20260507142155 | 18 | 135 | 0.0 | 0.0 | 0.05 | 0.00 | 1.04 | 95 | 1003.0 |
| 20260507141657 | 18 | 135 | 0.0 | 0.0 | 0.03 | 0.00 | 1.02 | 95 | 1003.0 |
| 20260507141154 | 17 | 135 | 0.0 | 0.0 | 0.03 | 0.00 | 1.02 | 95 | 1003.0 |
| 20260507140657 | 17 | 113 | 0.0 | 0.0 | 0.00 | 0.00 | 0.99 | 95 | 1003.0 |
| 20260507140156 | 17 | 113 | 0.0 | 0.0 | 0.00 | 0.00 | 0.99 | 95 | 1003.0 |
| 20260507135656 | 17 | 113 | 0.0 | 0.0 | 0.23 | 0.00 | 0.99 | 95 | 1002.0 |
| 20260507135156 | 17 | 113 | 1.6 | 3.2 | 0.20 | 0.00 | 0.97 | 95 | 1002.0 |
| 20260507134657 | 17 | 135 | 0.0 | 0.0 | 0.20 | 0.00 | 0.97 | 95 | 1003.0 |
| 20260507134156 | 17 | 135 | 0.0 | 0.0 | 0.18 | 0.00 | 0.94 | 95 | 1003.0 |
| 20260507133657 | 17 | 113 | 0.0 | 0.0 | 0.18 | 0.00 | 0.94 | 95 | 1003.0 |
| 20260507133158 | 17 | 135 | 0.0 | 0.0 | 0.18 | 0.00 | 0.94 | 95 | 1003.0 |
| 20260507132657 | 17 | 135 | 0.0 | 0.0 | 0.15 | 0.00 | 0.89 | 95 | 1003.0 |
| 20260507132157 | 17 | 135 | 0.0 | 0.0 | 0.15 | 0.00 | 0.89 | 95 | 1004.0 |
| 20260507131656 | 17 | 135 | 0.0 | 0.0 | 0.13 | 0.00 | 0.86 | 95 | 1004.0 |
| 20260507131155 | 18 | 135 | 0.0 | 0.0 | 0.10 | 0.00 | 0.84 | 95 | 1004.0 |
| 20260507130656 | 17 | 135 | 0.0 | 0.0 | 0.05 | 0.00 | 0.81 | 95 | 1004.0 |
| 20260507130157 | 18 | 135 | 0.0 | 0.0 | 0.03 | 0.00 | 0.79 | 95 | 1004.0 |
| 20260507125656 | 17 | 135 | 0.0 | 0.0 | 0.38 | 0.00 | 0.71 | 95 | 1004.0 |
| 20260507125154 | 17 | 135 | 0.0 | 0.0 | 0.36 | 0.00 | 0.69 | 95 | 1004.0 |
| 20260507124656 | 17 | 135 | 0.0 | 0.0 | 0.33 | 0.00 | 0.66 | 95 | 1004.0 |
| 20260507124157 | 17 | 135 | 0.0 | 0.0 | 0.30 | 0.00 | 0.64 | 95 | 1004.0 |
| 20260507123654 | 17 | 135 | 0.0 | 0.0 | 0.28 | 0.00 | 0.61 | 95 | 1004.0 |
| 20260507123155 | 17 | 135 | 0.0 | 0.0 | 0.28 | 0.00 | 0.61 | 95 | 1004.0 |
| 20260507122654 | 17 | 135 | 0.0 | 0.0 | 0.23 | 0.00 | 0.56 | 95 | 1004.0 |
| 20260507122157 | 17 | 135 | 0.0 | 0.0 | 0.13 | 0.00 | 0.46 | 95 | 1004.0 |
| 20260507121656 | 17 | 135 | 0.0 | 0.0 | 0.10 | 0.00 | 0.43 | 95 | 1004.0 |
| 20260507121155 | 17 | 135 | 0.0 | 0.0 | 0.10 | 0.00 | 0.43 | 95 | 1004.0 |
| 20260507120657 | 17 | 135 | 0.0 | 0.0 | 0.03 | 0.00 | 0.36 | 95 | 1004.0 |
| 20260507120157 | 17 | 135 | 0.0 | 0.0 | 0.03 | 0.00 | 0.36 | 95 | 1004.0 |
| 20260507115656 | 17 | 135 | 0.0 | 0.0 | 0.00 | 0.00 | 0.33 | 95 | 1004.0 |
| 20260507115156 | 17 | 135 | 0.0 | 0.0 | 0.00 | 0.00 | 0.33 | 95 | 1003.0 |
| 20260507114657 | 17 | 135 | 0.0 | 0.0 | 0.00 | 0.00 | 0.33 | 95 | 1003.0 |
| 20260507114157 | 17 | 135 | 0.0 | 0.0 | 0.00 | 0.00 | 0.33 | 95 | 1003.0 |
| 20260507113654 | 17 | 135 | 0.0 | 0.0 | 0.00 | 0.00 | 0.33 | 95 | 1004.0 |
| 20260507113156 | 17 | 135 | 0.0 | 0.0 | 0.00 | 0.00 | 0.33 | 95 | 1003.0 |
| 20260507112656 | 17 | 135 | 0.0 | 0.0 | 0.00 | 0.00 | 0.33 | 95 | 1003.0 |
| 20260507112157 | 17 | 135 | 0.0 | 0.0 | 0.00 | 0.00 | 0.33 | 95 | 1003.0 |
| 20260507111657 | 17 | 135 | 0.0 | 0.0 | 0.00 | 0.00 | 0.33 | 95 | 1003.0 |
| 20260507111156 | 17 | 135 | 0.0 | 0.0 | 0.00 | 0.00 | 0.33 | 95 | 1003.0 |
| 20260507110657 | 17 | 135 | 0.0 | 0.0 | 0.00 | 0.00 | 0.33 | 95 | 1004.0 |
| 20260507110154 | 17 | 135 | 0.0 | 0.0 | 0.00 | 0.00 | 0.33 | 95 | 1003.0 |
| 20260507105656 | 17 | 135 | 0.0 | 0.0 | 0.05 | 0.00 | 0.33 | 95 | 1004.0 |
| 20260507105156 | 17 | 135 | 0.0 | 0.0 | 0.05 | 0.00 | 0.33 | 95 | 1004.0 |
| 20260507104656 | 17 | 135 | 0.0 | 0.0 | 0.05 | 0.00 | 0.33 | 95 | 1003.0 |
| 20260507104156 | 17 | 135 | 0.0 | 0.0 | 0.05 | 0.00 | 0.33 | 95 | 1003.0 |
| 20260507103656 | 17 | 135 | 0.0 | 0.0 | 0.03 | 0.00 | 0.30 | 95 | 1003.0 |
| 20260507103156 | 17 | 135 | 0.0 | 0.0 | 0.03 | 0.00 | 0.30 | 95 | 1004.0 |
| 20260507102655 | 17 | 135 | 0.0 | 0.0 | 0.00 | 0.00 | 0.28 | 95 | 1003.0 |
| 20260507102155 | 17 | 135 | 0.0 | 0.0 | 0.00 | 0.00 | 0.28 | 95 | 1003.0 |
| 20260507101655 | 17 | 135 | 0.0 | 0.0 | 0.00 | 0.00 | 0.28 | 95 | 1003.0 |
| 20260507101154 | 17 | 135 | 0.0 | 0.0 | 0.00 | 0.00 | 0.28 | 95 | 1003.0 |
| 20260507100656 | 17 | 135 | 0.0 | 0.0 | 0.00 | 0.00 | 0.28 | 95 | 1003.0 |
| 20260507100154 | 17 | 135 | 0.0 | 0.0 | 0.00 | 0.00 | 0.28 | 95 | 1003.0 |
| 20260507095656 | 17 | 135 | 0.0 | 0.0 | 0.05 | 0.00 | 0.28 | 95 | 1003.0 |
| 20260507095156 | 17 | 135 | 0.0 | 0.0 | 0.05 | 0.00 | 0.28 | 95 | 1004.0 |
| 20260507094656 | 17 | 135 | 0.0 | 0.0 | 0.05 | 0.00 | 0.28 | 95 | 1004.0 |
| 20260507094155 | 17 | 135 | 0.0 | 0.0 | 0.05 | 0.00 | 0.28 | 95 | 1003.0 |
| 20260507093657 | 17 | 135 | 0.0 | 0.0 | 0.05 | 0.00 | 0.28 | 95 | 1003.0 |
| 20260507093155 | 17 | 135 | 0.0 | 0.0 | 0.03 | 0.00 | 0.23 | 95 | 1003.0 |
| 20260507092655 | 17 | 135 | 0.0 | 0.0 | 0.03 | 0.00 | 0.23 | 95 | 1004.0 |
| 20260507092155 | 17 | 135 | 0.0 | 0.0 | 0.00 | 0.00 | 0.20 | 95 | 1004.0 |
| 20260507091656 | 17 | 135 | 0.0 | 0.0 | 0.00 | 0.00 | 0.20 | 95 | 1004.0 |
| 20260507091155 | 17 | 135 | 0.0 | 0.0 | 0.00 | 0.00 | 0.20 | 95 | 1003.0 |
| 20260507090656 | 17 | 135 | 0.0 | 0.0 | 0.00 | 0.00 | 0.20 | 95 | 1003.0 |
| 20260507090155 | 17 | 135 | 0.0 | 0.0 | 0.00 | 0.00 | 0.20 | 95 | 1003.0 |
| 20260507085655 | 17 | 135 | 0.0 | 0.0 | 0.00 | 0.00 | 0.20 | 95 | 1003.0 |
| 20260507085155 | 17 | 135 | 0.0 | 0.0 | 0.00 | 0.00 | 0.20 | 95 | 1003.0 |
| 20260507084655 | 17 | 135 | 0.0 | 0.0 | 0.00 | 0.00 | 0.20 | 95 | 1003.0 |
| 20260507084155 | 17 | 135 | 0.0 | 0.0 | 0.00 | 0.00 | 0.20 | 95 | 1003.0 |
| 20260507083656 | 17 | 135 | 0.0 | 0.0 | 0.00 | 0.00 | 0.20 | 95 | 1003.0 |
| 20260507083154 | 17 | 135 | 0.0 | 0.0 | 0.00 | 0.00 | 0.20 | 95 | 1003.0 |
| 20260507082656 | 17 | 135 | 0.0 | 0.0 | 0.00 | 0.00 | 0.20 | 95 | 1003.0 |
| 20260507082157 | 17 | 135 | 0.0 | 0.0 | 0.00 | 0.00 | 0.20 | 95 | 1003.0 |
| 20260507081656 | 17 | 135 | 0.0 | 0.0 | 0.00 | 0.00 | 0.20 | 95 | 1003.0 |
| 20260507081156 | 17 | 135 | 0.0 | 0.0 | 0.00 | 0.00 | 0.20 | 95 | 1003.0 |
| 20260507080656 | 17 | 135 | 0.0 | 1.6 | 0.00 | 0.00 | 0.20 | 95 | 1004.0 |
| 20260507080155 | 17 | 135 | 0.0 | 0.0 | 0.00 | 0.00 | 0.20 | 95 | 1004.0 |
| 20260507075656 | 17 | 135 | 0.0 | 0.0 | 0.10 | 0.00 | 0.18 | 95 | 1004.0 |
| 20260507075156 | 17 | 135 | 0.0 | 0.0 | 0.05 | 0.00 | 0.15 | 95 | 1004.0 |
| 20260507074657 | 17 | 135 | 0.0 | 0.0 | 0.00 | 0.00 | 0.10 | 95 | 1004.0 |
| 20260507074156 | 17 | 135 | 0.0 | 0.0 | 0.00 | 0.00 | 0.10 | 95 | 1004.0 |
| 20260507073656 | 17 | 135 | 0.0 | 0.0 | 0.00 | 0.00 | 0.10 | 95 | 1004.0 |
| 20260507073156 | 17 | 135 | 0.0 | 0.0 | 0.00 | 0.00 | 0.10 | 95 | 1004.0 |
| 20260507072654 | 17 | 135 | 0.0 | 0.0 | 0.00 | 0.00 | 0.10 | 94 | 1004.0 |
| 20260507072155 | 17 | 135 | 1.6 | 1.6 | 0.00 | 0.00 | 0.10 | 94 | 1004.0 |
| 20260507071656 | 17 | 135 | 0.0 | 0.0 | 0.00 | 0.00 | 0.10 | 94 | 1004.0 |
| 20260507071156 | 17 | 135 | 0.0 | 0.0 | 0.00 | 0.00 | 0.10 | 94 | 1004.0 |
| 20260507070657 | 17 | 135 | 0.0 | 0.0 | 0.00 | 0.00 | 0.10 | 94 | 1004.0 |
| 20260507070157 | 17 | 135 | 0.0 | 0.0 | 0.00 | 0.00 | 0.10 | 94 | 1004.0 |
| 20260507065655 | 17 | 135 | 1.6 | 3.2 | 0.00 | 0.00 | 0.10 | 94 | 1004.0 |
| 20260507065156 | 17 | 135 | 1.6 | 3.2 | 0.00 | 0.00 | 0.10 | 94 | 1004.0 |
| 20260507064656 | 17 | 135 | 0.0 | 3.2 | 0.00 | 0.00 | 0.10 | 94 | 1004.0 |
| 20260507064157 | 17 | 135 | 0.0 | 1.6 | 0.00 | 0.00 | 0.10 | 94 | 1004.0 |
| 20260507063656 | 17 | 135 | 1.6 | 3.2 | 0.00 | 0.00 | 0.10 | 94 | 1004.0 |
| 20260507063156 | 17 | 135 | 3.2 | 3.2 | 0.00 | 0.00 | 0.10 | 94 | 1005.0 |
| 20260507062656 | 17 | 135 | 0.0 | 1.6 | 0.00 | 0.00 | 0.10 | 94 | 1004.0 |
| 20260507062157 | 17 | 135 | 0.0 | 0.0 | 0.00 | 0.00 | 0.10 | 94 | 1004.0 |
| 20260507061654 | 17 | 135 | 0.0 | 1.6 | 0.00 | 0.00 | 0.10 | 94 | 1005.0 |
| 20260507061155 | 17 | 135 | 0.0 | 1.6 | 0.00 | 0.00 | 0.10 | 94 | 1005.0 |
| 20260507060655 | 17 | 135 | 0.0 | 1.6 | 0.00 | 0.00 | 0.10 | 94 | 1005.0 |
| 20260507060154 | 17 | 135 | 0.0 | 0.0 | 0.00 | 0.00 | 0.10 | 94 | 1006.0 |
| 20260507055656 | 17 | 135 | 0.0 | 0.0 | 0.05 | 0.00 | 0.10 | 94 | 1006.0 |
| 20260507055157 | 17 | 135 | 0.0 | 0.0 | 0.05 | 0.00 | 0.10 | 94 | 1006.0 |
| 20260507054655 | 17 | 135 | 0.0 | 1.6 | 0.03 | 0.00 | 0.05 | 94 | 1006.0 |
| 20260507054154 | 17 | 135 | 3.2 | 3.2 | 0.03 | 0.00 | 0.05 | 94 | 1005.0 |
| 20260507053656 | 17 | 135 | 0.0 | 1.6 | 0.00 | 0.00 | 0.03 | 94 | 1005.0 |
| 20260507053154 | 17 | 135 | 1.6 | 3.2 | 0.00 | 0.00 | 0.03 | 94 | 1006.0 |
| 20260507052656 | 17 | 135 | 3.2 | 3.2 | 0.00 | 0.00 | 0.03 | 94 | 1006.0 |
| 20260507052157 | 17 | 135 | 0.0 | 1.6 | 0.00 | 0.00 | 0.03 | 94 | 1005.0 |
| 20260507051656 | 17 | 135 | 0.0 | 0.0 | 0.00 | 0.00 | 0.03 | 94 | 1005.0 |
| 20260507051155 | 17 | 135 | 1.6 | 1.6 | 0.00 | 0.00 | 0.03 | 94 | 1005.0 |